Location: Nitra
(48.3167°N, 18.0833°E)
Time: 07:50:41
(UTC+02:00)

Daily predictions for brighter satellites

Satellite Brightness Start Highest point End
(mag) Time Altitude Azimuth Time Altitude Azimuth Time Altitude Azimuth
S3M 4.2 20:21:10 10° N 20:27:16 54° ENE 20:33:25 10° SSE
Cosmos 405 Rocket 4.3 20:25:56 10° NNW 20:29:29 38° W 20:33:05 10° SSW
Meteor 2-4 Rocket 4.3 20:24:39 10° N 20:29:46 38° ENE 20:34:58 10° SE
Cosmos 1980 Rocket 2.2 20:24:29 10° S 20:29:59 60° ESE 20:35:31 10° NE
Envisat 3.0 20:25:02 10° SSE 20:30:06 83° ENE 20:35:13 10° NNW
Cosmos 1553 Rocket 4.1 20:25:06 10° N 20:31:16 61° ENE 20:37:18 10° SSE
ERS-1 Rocket 4.0 20:27:10 10° ESE 20:31:31 30° ENE 20:35:52 10° N
Iridium 30 4.3 20:30:25 10° S 20:33:31 72° E 20:37:16 10° N
USA 186 2.3 20:30:18 10° S 20:33:36 65° W 20:37:00 10° NNW
Cosmos 2056 Rocket 3.7 20:31:08 10° SSW 20:36:16 80° WNW 20:41:32 10° NNE
ATLAS 2AS CENTAUR R/B 4.1 20:33:10 10° SSE 20:38:30 21° ESE 20:44:01 10° ENE
USA 229 DEB 4.5 20:32:36 10° WSW 20:39:19 59° NW 20:46:16 10° NE
USA 229 4.5 20:32:43 10° WSW 20:39:27 59° NW 20:46:22 10° NE
Meteor 2-11 Rocket 4.5 20:34:09 10° N 20:40:18 84° E 20:46:22 10° S
Helios 1A 3.3 20:36:35 10° SSE 20:40:42 52° ENE 20:44:51 10° N
Resurs 1-3 4.4 20:37:07 10° S 20:41:25 54° W 20:45:44 10° NNW
Meteor 1-29 4.4 20:39:39 10° NE 20:42:15 20° E 20:44:50 10° SE
NOSS 3-1 (A) 3.4 20:38:33 10° SSW 20:44:21 72° SE 20:50:57 10° NE
Cosmos 1697 Rocket 3.2 20:40:57 10° SW 20:46:32 67° WNW 20:52:12 10° NNE
Cosmos 1607 4.5 20:42:18 10° NNW 20:48:35 51° NE 20:54:36 11° ESE
Cosmos 44 3.5 20:47:05 10° NW 20:51:25 61° WSW 20:55:53 10° SSE
CZ-4C R/B 4.4 20:46:33 10° NW 20:52:47 32° WSW 20:59:32 10° S
ERBS 2.9 20:51:33 10° SSW 20:54:45 36° SE 20:57:59 10° ENE
Meteor 1-11 Rocket 3.9 20:51:13 10° S 20:56:54 54° E 21:02:29 10° NNE
Cosmos 1850 Rocket 4.1 20:54:32 10° NNW 20:59:53 66° ENE 21:04:52 12° SSE
Cosmos 1452 Rocket 3.5 20:55:03 10° SSW 21:00:18 72° ESE 21:05:36 10° NNE
Cosmos 1420 Rocket 4.0 21:00:47 10° S 21:05:50 57° ESE 21:10:56 10° NNE
Resurs 01 Rocket 3.6 21:03:09 10° SSW 21:07:02 29° W 21:10:56 10° NW
Cosmos 2360 4.3 21:01:26 10° SSW 21:07:09 86° WNW 21:12:53 10° NNE
YAOGAN 6 2.7 21:03:50 10° S 21:07:23 74° WSW 21:10:56 10° NNW
Cosmos 1633 3.7 21:05:27 10° SSW 21:08:56 47° WNW 21:12:29 10° N
Okean 1-7 Rocket 4.4 21:06:02 10° N 21:10:08 34° ENE 21:13:00 17° SE
Cosmos 1655 Rocket 4.3 21:03:54 10° SSW 21:10:10 76° W 21:16:34 10° N
SPOT 1/Viking Rocket 4.5 21:10:35 15° ESE 21:14:10 33° ENE 21:18:49 10° N
NOSS 3-1 (C) 4.0 21:09:05 10° SW 21:14:57 63° NW 21:21:40 10° NE
Okean 1 Rocket 3.5 21:12:53 12° SSE 21:16:38 41° E 21:20:45 10° NNE
NOSS 2-3 (C) 4.4 21:17:53 10° S 21:22:12 36° ESE 21:27:12 10° NE
USA 215 4.4 21:17:34 10° ENE 21:23:38 42° N 21:29:42 10° WNW
Meteor 1-23 Rocket 4.2 21:18:59 10° N 21:24:35 75° ENE 21:29:21 14° SSE
Cosmos 1300 Rocket 3.4 21:21:42 10° S 21:25:59 74° E 21:30:18 10° NNE
MetOp-A 4.1 21:21:24 14° SSE 21:26:02 76° ENE 21:31:25 10° NNW
Cosmos 2151 Rocket 4.0 21:22:25 10° SSW 21:26:47 64° WNW 21:31:10 10° N
Terra 3.3 21:26:47 16° E 21:29:03 22° ENE 21:32:43 10° N
Cosmos 2278 Rocket 4.3 21:26:59 10° N 21:30:23 16° NE 21:33:47 10° ENE
USA 238 DEB 4.2 21:23:55 10° NW 21:30:52 54° NE 21:36:06 18° ESE
USA 238 4.2 21:24:02 10° NW 21:30:57 54° NE 21:36:12 18° ESE
Cosmos 1975 4.5 21:31:02 17° E 21:31:13 17° E 21:33:52 10° NE
Cosmos 1025 Rocket 3.0 21:31:34 10° N 21:35:50 62° ENE 21:38:13 24° SSE
Cosmos 2263 Rocket 2.3 21:31:23 10° NNW 21:37:08 81° WSW 21:41:13 20° SSE
Cosmos 2322 Rocket 2.1 21:31:30 10° SSW 21:37:10 73° ESE 21:42:53 10° NNE
SeaSat 1 3.6 21:33:24 10° NNE 21:38:08 47° NW 21:42:51 10° SW
Helios 1B rocket 2.7 21:36:43 10° N 21:40:48 69° WNW 21:44:52 10° SSW
ARGOS 3.1 21:37:05 19° SSE 21:41:03 82° ENE 21:46:27 10° NNW
USA 245 3.9 21:37:31 20° SSE 21:41:18 73° ENE 21:45:47 10° N
BREEZE M DEB (TANK) 4.1 21:38:04 10° SSW 21:42:16 20° SSE 21:42:16 20° SSE
CZ-4B DEB 4.0 21:40:55 14° SSW 21:42:59 34° W 21:45:40 10° NNW
Abrixas rocket 2.1 21:41:26 10° W 21:44:43 90° SSW 21:46:11 30° E
Cosmos 220 Rocket 3.9 21:41:27 10° NNW 21:45:45 88° ENE 21:47:57 28° SSE
Cosmos 1844 Rocket 3.7 21:40:46 10° NNW 21:45:57 34° NE 21:49:01 21° E
SL-16 R/B 2.1 21:40:33 10° SSW 21:46:13 83° ESE 21:51:56 10° NNE
Cosmos 1238 Rocket 4.4 21:40:11 10° N 21:46:45 52° ENE 21:50:35 25° SE
H-2A R/B 3.8 21:47:48 16° E 21:49:06 18° ENE 21:52:06 10° NNE
SL-08 RB Rocket 3.6 21:46:53 26° SSE 21:49:30 79° ENE 21:54:04 10° N
Tiangong 1 2.6 21:49:07 10° WSW 21:50:36 20° SW 21:50:36 20° SW
H-2A R/B 2.0 21:49:25 26° SSE 21:52:17 70° ENE 21:57:16 10° N
Cosmos 2322 4.3 21:51:08 26° SE 21:53:12 35° ESE 21:58:17 10° NE
Cosmos 1536 3.5 21:49:35 10° SSW 21:53:36 57° WNW 21:57:38 10° N
SL-8 R/B 3.6 21:49:27 10° W 21:54:16 87° S 21:56:53 27° E
Cosmos 839 Rocket 4.4 21:48:59 10° SW 21:55:07 67° NW 22:01:34 10° NE
Lacrosse 5 rocket 3.5 21:53:28 10° W 21:55:39 15° SW 21:57:25 12° SSW
ATLAS 3B R/B 2.7 21:50:07 10° NW 21:56:59 76° NE 22:00:43 28° SE
COSMOS 2428 3.9 21:59:47 23° E 21:59:47 23° E 22:04:01 10° NE
Cosmos 2219 Rocket 4.1 22:02:25 13° E 22:02:25 13° E 22:04:02 10° ENE
NOSS 2-3 (D) 3.8 21:56:58 10° SSW 22:01:41 67° SE 22:07:18 10° NE
SPOT 5 2.9 22:00:07 26° S 22:02:57 80° WSW 22:07:42 10° NNW
Cosmos 1892 Rocket 3.7 22:02:29 10° N 22:06:55 60° ENE 22:08:12 42° SE
Meteor 1-5 Rocket 4.3 22:03:11 10° SSW 22:08:31 69° WNW 22:13:49 10° N
ERS-1 Rocket 4.0 22:06:06 14° SSW 22:10:09 41° W 22:14:56 10° NNW
Cosmos 1844 4.5 22:05:06 10° NNW 22:10:26 40° NE 22:12:52 27° E
EXPRESS MD2 3.5 22:07:18 10° WSW 22:10:39 79° SSE 22:17:29 10° ENE
Lacrosse 5 2.2 22:11:23 39° SE 22:11:40 39° SE 22:16:22 10° ENE
GP-B 4.2 22:08:38 10° NNE 22:12:29 28° E 22:12:40 28° E
Cosmos 2360 Rocket 2.2 22:09:04 21° S 22:12:44 58° ESE 22:18:16 10° NE
Atlas Centaur 2 4.2 22:09:49 10° SW 22:13:40 15° SSW 22:13:54 15° S
Cosmos 2333 Rocket 4.1 22:15:22 13° E 22:15:22 13° E 22:16:52 10° ENE
Cosmos 1980 Rocket 4.3 22:09:35 10° WSW 22:14:23 28° NW 22:19:13 10° NNE
Cosmos 2315 Rocket 4.4 22:10:17 10° NNW 22:16:26 63° W 22:21:01 19° S
Cosmos 1515 3.9 22:13:08 10° NNW 22:16:55 64° W 22:18:02 41° SSW
Molniya-1 4.4 22:19:09 10° NNW 22:21:28 43° NNE 22:21:28 43° NNE
Cosmos 1486 Rocket 4.0 22:18:58 10° NNW 22:24:16 74° ENE 22:25:53 44° SE
BREEZE-M DEB (TANK) 4.0 22:22:47 10° WSW 22:23:00 12° WSW 22:23:00 12° WSW
Okean 2 4.3 22:21:56 10° NNW 22:25:51 44° W 22:27:31 28° SW
DMSP B5D2-2 4.0 22:21:24 10° NNE 22:26:38 64° ESE 22:28:22 41° SSE
Cosmos 1544 Rocket 3.6 22:26:34 54° SE 22:27:06 58° E 22:31:31 10° NNE
ATLAS 2AS CENTAUR R/B 3.0 22:20:34 10° SSW 22:28:20 78° SE 22:36:31 10° NE
Cosmos 1302 Rocket 4.2 22:29:35 45° SE 22:30:20 49° ESE 22:35:26 10° NNE
ERBS 3.8 22:28:06 10° W 22:31:24 39° NNW 22:34:43 10° NE
Cosmos 1437 Rocket 3.9 22:32:37 32° ENE 22:32:37 32° ENE 22:35:28 10° NNE
Cosmos 1500 3.4 22:36:32 53° SW 22:37:16 68° W 22:41:10 10° N
Cosmos 1110 Rocket 4.0 22:34:50 21° SSW 22:38:22 78° WNW 22:43:36 10° NNE
NOSS 2-3 (E) 4.3 22:34:07 10° SW 22:38:56 68° NW 22:44:47 10° NE
Meteor 1-12 Rocket 4.1 22:37:02 42° S 22:38:59 74° E 22:44:39 10° NNE
Meteor 1-21 4.4 22:33:51 10° N 22:39:22 55° ENE 22:40:42 44° ESE
Cosmos 1455 Rocket 2.9 22:39:46 65° SE 22:40:07 69° E 22:44:34 10° NNE
Cosmos 405 3.0 22:40:31 77° NNW 22:40:31 77° NNW 22:43:55 10° N
Cosmos 2237 Rocket 4.1 22:42:56 15° ENE 22:42:56 15° ENE 22:44:40 10° ENE
CZ-2C R/B 4.3 22:41:12 22° ENE 22:41:57 23° ENE 22:45:40 10° N
Cosmos 1066 Rocket 4.2 22:38:02 10° NNW 22:43:25 72° W 22:45:16 42° S
CENTAUR R/B 4.0 22:43:08 10° NW 22:50:10 41° NNE 22:56:10 17° E
Landsat 7 4.3 22:49:51 41° SSW 22:51:08 53° W 22:55:50 10° NNW
Cosmos 1745 Rocket 3.8 22:52:00 44° S 22:54:04 81° E 23:00:15 10° N
Cosmos 1818 4.4 22:56:56 33° E 22:56:56 33° E 23:00:38 10° NE
Cosmos 1331 Rocket 4.3 22:52:26 23° SW 22:55:41 64° WNW 23:00:55 10° NNE
ALOS 2 4.4 22:57:59 19° ENE 22:58:11 20° ENE 23:01:20 10° NNE
Cosmos 1354 Rocket 4.0 22:52:54 10° NNW 22:58:15 76° ENE 22:59:07 61° SE
COSMOS 2455 4.5 22:54:36 10° NNW 22:59:37 26° NE 23:03:12 16° E
USA 81 4.2 22:58:11 10° N 23:03:24 53° E 23:03:49 52° E
Cosmos 1842 3.8 23:01:39 10° N 23:04:53 50° NNE 23:04:53 50° NNE
USA 215 3.8 23:01:12 18° E 23:05:58 54° NNE 23:12:19 10° NW
Terra 2.2 23:05:40 47° SW 23:06:27 53° W 23:11:08 10° NNW
Cosmos 1975 3.7 23:06:49 41° W 23:07:23 44° WNW 23:11:14 10° N
CARTOSAT-1 4.3 23:10:57 42° WSW 23:11:18 43° W 23:15:27 10° NNW
ATLAS CENTAUR R/B 3.7 23:10:27 10° N 23:12:27 14° NNE 23:13:41 12° NE
BREEZE-M (TANK) 3.4 23:03:39 10° WNW 23:13:24 54° SW 23:13:25 54° SW
IGS 5A 4.3 23:14:31 40° WSW 23:14:38 40° W 23:18:36 10° NNW
Cosmos 2278 Rocket 2.4 23:10:04 10° NNW 23:15:43 61° ENE 23:16:39 53° E
Cosmos 2237 4.3 23:13:37 37° SW 23:15:56 77° WNW 23:21:41 10° NNE
Cosmos 1602 Rocket 3.7 23:15:32 10° NNW 23:19:38 69° WNW 23:19:38 69° WNW
BREEZE-M DEB 4.3 23:16:07 10° WNW 23:19:48 29° W 23:19:48 29° W
USA 238 DEB 4.3 23:15:07 10° NW 23:21:48 46° WSW 23:23:31 39° SSW
Cosmos 2322 Rocket 4.3 23:17:09 10° W 23:21:49 25° NW 23:26:29 10° N
USA 238 4.3 23:15:13 10° NW 23:21:54 46° WSW 23:23:37 39° SSW
Cosmos 1503 Rocket 4.0 23:16:46 10° NNW 23:22:08 71° WSW 23:22:38 66° SSW
NOSS 3-2 (A) 3.9 23:15:19 10° NW 23:22:43 76° SW 23:25:04 50° SSE
Cosmos 1666 3.4 23:23:53 52° NNW 23:23:53 52° NNW 23:26:59 10° N
CZ-4B R/B 3.6 23:19:06 10° NNE 23:23:13 55° ENE 23:23:13 55° ENE
Spot 4 3.8 23:24:02 71° WSW 23:24:09 72° WSW 23:28:56 10° NNW
H-2A R/B 2.4 23:24:56 56° W 23:24:56 56° W 23:29:00 10° NNW
Cosmos 1743 3.8 23:29:13 41° WNW 23:29:13 41° WNW 23:32:29 10° N
Timation 1 Rocket 4.2 23:22:51 10° NNW 23:28:52 81° ENE 23:29:44 66° SE
Cosmos 1844 Rocket 3.2 23:24:35 10° NW 23:30:01 48° WSW 23:30:40 45° SW
Cosmos 1241 Rocket 4.4 23:29:01 50° SSW 23:30:54 83° ESE 23:37:24 10° NE
H-2A R/B 4.1 23:30:04 14° WSW 23:32:12 17° W 23:35:30 10° NW
deb Chang Zheng 4 3.8 23:30:13 10° NNE 23:34:04 67° N 23:34:04 67° N
Meteor 1-15 Rocket 4.5 23:34:39 55° E 23:34:43 55° E 23:40:29 10° NNE
Meteor 2-9 Rocket 4.1 23:36:49 74° S 23:37:20 85° E 23:43:04 10° NNE
NOSS 0 Rocket 4.1 23:38:10 53° ESE 23:38:10 53° ESE 23:43:59 10° NE
COSMOS 2428 2.9 23:41:45 45° WSW 23:43:25 67° WNW 23:49:09 10° NNE
Cosmos 2219 Rocket 2.0 23:44:06 81° SSE 23:44:17 83° ESE 23:49:59 10° NNE
CZ-4 R/B 4.0 23:40:04 10° N 23:44:45 66° WNW 23:44:53 65° W
SL-16 R/B 3.8 23:48:03 21° E 23:48:03 21° E 23:50:56 10° NE
ATLAS 3B R/B 3.8 23:41:39 10° WNW 23:47:01 26° WSW 23:47:57 25° SW
Cosmos 2181 Rocket 4.0 23:43:02 10° N 23:49:30 81° W 23:50:29 66° SSW
GP-B 4.4 23:45:52 10° NNW 23:49:50 32° W 23:50:07 32° W
Meteor 1-4 Rocket 4.2 23:52:17 33° NNE 23:52:17 33° NNE 23:54:29 10° NNE
CZ-2C R/B 2.9 23:47:12 10° NNE 23:52:07 57° E 23:52:07 57° E
Lacrosse 5 2.4 23:50:01 13° WSW 23:54:32 57° NNW 23:59:33 10° NE
Cosmos 1844 4.4 23:49:20 10° NW 23:54:35 40° WSW 23:54:45 40° WSW
